| time (UTC) | temp C | wind direction | speed KPH | gust KPH | rain 1hr cm | rain 24hr cm | rain mn cm | humidity % | barometer mb |
| 20260906103526 | 22 | 62 | 0.0 | 4.8 | 0.00 | 0.00 | 0.00 | 80 | 1011.1 |
| 20260906103045 | 22 | 0 | 0.0 | 0.0 | 0.00 | 0.00 | 0.00 | 80 | 1011.2 |
| 20260906102525 | 22 | 0 | 0.0 | 0.0 | 0.00 | 0.00 | 0.00 | 80 | 1011.2 |
| 20260906102023 | 22 | 0 | 0.0 | 1.6 | 0.00 | 0.00 | 0.00 | 80 | 1011.2 |
| 20260906101546 | 22 | 0 | 0.0 | 4.8 | 0.00 | 0.00 | 0.00 | 80 | 1011.1 |
| 20260906101024 | 22 | 0 | 0.0 | 4.8 | 0.00 | 0.00 | 0.00 | 79 | 1011.1 |
| 20260906100524 | 22 | 62 | 1.6 | 4.8 | 0.00 | 0.00 | 0.00 | 79 | 1011.1 |
| 20260906100043 | 22 | 62 | 1.6 | 4.8 | 0.00 | 0.00 | 0.00 | 79 | 1011.1 |
| 20260906095521 | 22 | 62 | 1.6 | 3.2 | 0.00 | 0.00 | 0.00 | 79 | 1011.2 |
| 20260906095024 | 22 | 62 | 0.0 | 3.2 | 0.00 | 0.00 | 0.00 | 79 | 1011.2 |
| 20260906094546 | 22 | 0 | 1.6 | 3.2 | 0.00 | 0.00 | 0.00 | 78 | 1011.2 |
| 20260906094024 | 22 | 62 | 1.6 | 3.2 | 0.00 | 0.00 | 0.00 | 78 | 1011.3 |
| 20260906093525 | 22 | 0 | 0.0 | 0.0 | 0.00 | 0.00 | 0.00 | 79 | 1011.2 |
| 20260906093054 | 22 | 0 | 0.0 | 3.2 | 0.00 | 0.00 | 0.00 | 78 | 1011.3 |
| 20260906092523 | 22 | 0 | 0.0 | 3.2 | 0.00 | 0.00 | 0.00 | 77 | 1011.3 |
| 20260906092025 | 22 | 62 | 1.6 | 4.8 | 0.00 | 0.00 | 0.00 | 77 | 1011.3 |
| 20260906091543 | 22 | 62 | 1.6 | 4.8 | 0.00 | 0.00 | 0.00 | 77 | 1011.3 |
| 20260906091024 | 22 | 62 | 3.2 | 4.8 | 0.00 | 0.00 | 0.00 | 77 | 1011.1 |
| 20260906090525 | 22 | 62 | 1.6 | 4.8 | 0.00 | 0.00 | 0.00 | 77 | 1011.1 |
| 20260906090043 | 22 | 62 | 1.6 | 4.8 | 0.00 | 0.00 | 0.00 | 76 | 1011.1 |
| 20260906085524 | 22 | 62 | 3.2 | 4.8 | 0.00 | 0.00 | 0.00 | 77 | 1011.2 |
| 20260906085024 | 22 | 62 | 1.6 | 6.4 | 0.00 | 0.00 | 0.00 | 76 | 1011.1 |
| 20260906084554 | 22 | 62 | 1.6 | 6.4 | 0.00 | 0.00 | 0.00 | 76 | 1011.0 |
| 20260906084024 | 23 | 62 | 3.2 | 6.4 | 0.00 | 0.00 | 0.00 | 77 | 1011.0 |
| 20260906083524 | 23 | 0 | 0.0 | 0.0 | 0.00 | 0.00 | 0.00 | 77 | 1010.9 |
| 20260906083044 | 23 | 0 | 0.0 | 0.0 | 0.00 | 0.00 | 0.00 | 77 | 1011.1 |
| 20260906082523 | 23 | 0 | 0.0 | 0.0 | 0.00 | 0.00 | 0.00 | 76 | 1011.1 |
| 20260906082024 | 23 | 0 | 0.0 | 3.2 | 0.00 | 0.00 | 0.00 | 76 | 1011.0 |
| 20260906081551 | 23 | 0 | 0.0 | 3.2 | 0.00 | 0.00 | 0.00 | 76 | 1011.0 |
| 20260906081024 | 23 | 71 | 0.0 | 4.8 | 0.00 | 0.00 | 0.00 | 75 | 1011.1 |
| 20260906080525 | 23 | 71 | 3.2 | 4.8 | 0.00 | 0.00 | 0.00 | 75 | 1011.1 |
| 20260906080045 | 23 | 71 | 3.2 | 4.8 | 0.00 | 0.00 | 0.00 | 75 | 1011.1 |
| 20260906075524 | 23 | 71 | 1.6 | 3.2 | 0.00 | 0.00 | 0.00 | 75 | 1011.0 |
| 20260906075024 | 23 | 71 | 0.0 | 3.2 | 0.00 | 0.00 | 0.00 | 75 | 1011.0 |
| 20260906074547 | 23 | 0 | 0.0 | 4.8 | 0.00 | 0.00 | 0.00 | 74 | 1011.0 |
| 20260906074024 | 23 | 71 | 1.6 | 6.4 | 0.00 | 0.00 | 0.00 | 74 | 1011.0 |
| 20260906073524 | 23 | 71 | 3.2 | 6.4 | 0.00 | 0.00 | 0.00 | 75 | 1010.8 |
| 20260906073055 | 23 | 90 | 3.2 | 4.8 | 0.00 | 0.00 | 0.00 | 73 | 1010.7 |
| 20260906072527 | 23 | 90 | 1.6 | 4.8 | 0.00 | 0.00 | 0.00 | 72 | 1010.8 |
| 20260906072023 | 23 | 90 | 1.6 | 3.2 | 0.00 | 0.00 | 0.00 | 72 | 1010.8 |
| 20260906071544 | 24 | 90 | 0.0 | 3.2 | 0.00 | 0.00 | 0.00 | 71 | 1010.9 |
| 20260906071024 | 24 | 90 | 0.0 | 3.2 | 0.00 | 0.00 | 0.00 | 71 | 1010.8 |
| 20260906070525 | 24 | 0 | 0.0 | 1.6 | 0.00 | 0.00 | 0.00 | 71 | 1010.8 |
| 20260906070056 | 24 | 90 | 0.0 | 1.6 | 0.00 | 0.00 | 0.00 | 71 | 1010.8 |
| 20260906065524 | 24 | 0 | 0.0 | 1.6 | 0.00 | 0.00 | 0.00 | 71 | 1010.8 |
| 20260906065023 | 24 | 0 | 0.0 | 1.6 | 0.00 | 0.00 | 0.00 | 71 | 1010.8 |
| 20260906064544 | 25 | 0 | 0.0 | 3.2 | 0.00 | 0.00 | 0.00 | 69 | 1010.8 |
| 20260906064024 | 25 | 0 | 0.0 | 3.2 | 0.00 | 0.00 | 0.00 | 68 | 1010.7 |
| 20260906063527 | 25 | 90 | 1.6 | 3.2 | 0.00 | 0.00 | 0.00 | 68 | 1010.6 |
| 20260906063047 | 25 | 90 | 1.6 | 4.8 | 0.00 | 0.00 | 0.00 | 67 | 1010.7 |
| 20260906062523 | 25 | 90 | 1.6 | 4.8 | 0.00 | 0.00 | 0.00 | 67 | 1010.7 |
| 20260906062024 | 25 | 90 | 1.6 | 4.8 | 0.00 | 0.00 | 0.00 | 67 | 1010.8 |
| 20260906061559 | 25 | 90 | 3.2 | 4.8 | 0.00 | 0.00 | 0.00 | 66 | 1010.9 |
| 20260906061023 | 25 | 90 | 1.6 | 3.2 | 0.00 | 0.00 | 0.00 | 65 | 1010.9 |
| 20260906060526 | 26 | 90 | 0.0 | 3.2 | 0.00 | 0.00 | 0.00 | 65 | 1011.0 |
| 20260906060045 | 26 | 90 | 1.6 | 3.2 | 0.00 | 0.00 | 0.00 | 65 | 1011.0 |
| 20260906055523 | 26 | 90 | 0.0 | 3.2 | 0.00 | 0.00 | 0.00 | 65 | 1011.0 |
| 20260906055024 | 26 | 0 | 0.0 | 6.4 | 0.00 | 0.00 | 0.00 | 65 | 1011.1 |
| 20260906054552 | 26 | 90 | 0.0 | 8.0 | 0.00 | 0.00 | 0.00 | 64 | 1011.0 |
| 20260906054024 | 26 | 89 | 4.8 | 8.0 | 0.00 | 0.00 | 0.00 | 64 | 1010.9 |
| 20260906053525 | 26 | 83 | 6.4 | 8.0 | 0.00 | 0.00 | 0.00 | 64 | 1010.9 |
| 20260906053051 | 26 | 83 | 4.8 | 6.4 | 0.00 | 0.00 | 0.00 | 64 | 1010.9 |
| 20260906052524 | 26 | 82 | 4.8 | 6.4 | 0.00 | 0.00 | 0.00 | 64 | 1010.9 |
| 20260906052028 | 26 | 78 | 3.2 | 9.7 | 0.00 | 0.00 | 0.00 | 63 | 1011.0 |
| 20260906051545 | 26 | 88 | 3.2 | 9.7 | 0.00 | 0.00 | 0.00 | 63 | 1011.0 |
| 20260906051027 | 26 | 80 | 6.4 | 11.3 | 0.00 | 0.00 | 0.00 | 63 | 1010.9 |
| 20260906050523 | 26 | 84 | 6.4 | 11.3 | 0.00 | 0.00 | 0.00 | 63 | 1010.9 |
| 20260906050105 | 26 | 82 | 4.8 | 9.7 | 0.00 | 0.00 | 0.00 | 63 | 1011.0 |
| 20260906045526 | 26 | 84 | 3.2 | 6.4 | 0.00 | 0.00 | 0.00 | 63 | 1011.0 |
| 20260906045024 | 26 | 83 | 1.6 | 6.4 | 0.00 | 0.00 | 0.00 | 63 | 1011.1 |
| 20260906044542 | 26 | 82 | 1.6 | 6.4 | 0.00 | 0.00 | 0.00 | 63 | 1011.0 |
| 20260906044023 | 26 | 86 | 4.8 | 6.4 | 0.00 | 0.00 | 0.00 | 63 | 1011.0 |
| 20260906043524 | 26 | 87 | 3.2 | 9.7 | 0.00 | 0.00 | 0.00 | 63 | 1011.0 |
| 20260906043058 | 26 | 82 | 4.8 | 11.3 | 0.00 | 0.00 | 0.00 | 63 | 1011.0 |
| 20260906042525 | 26 | 81 | 4.8 | 11.3 | 0.00 | 0.00 | 0.00 | 63 | 1010.9 |
| 20260906042024 | 26 | 86 | 4.8 | 11.3 | 0.00 | 0.00 | 0.00 | 63 | 1011.0 |
| 20260906041544 | 26 | 90 | 4.8 | 9.7 | 0.00 | 0.00 | 0.00 | 64 | 1011.0 |
| 20260906041025 | 26 | 94 | 4.8 | 9.7 | 0.00 | 0.00 | 0.00 | 64 | 1011.0 |
| 20260906040524 | 27 | 84 | 3.2 | 6.4 | 0.00 | 0.00 | 0.00 | 63 | 1010.9 |
| 20260906040104 | 27 | 84 | 4.8 | 6.4 | 0.00 | 0.00 | 0.00 | 63 | 1011.0 |
| 20260906035524 | 27 | 94 | 4.8 | 6.4 | 0.00 | 0.00 | 0.00 | 63 | 1011.0 |
| 20260906035024 | 27 | 94 | 3.2 | 4.8 | 0.00 | 0.00 | 0.00 | 61 | 1010.9 |
| 20260906034542 | 27 | 94 | 3.2 | 4.8 | 0.00 | 0.00 | 0.00 | 61 | 1011.0 |
| 20260906034025 | 27 | 94 | 3.2 | 6.4 | 0.00 | 0.00 | 0.00 | 61 | 1010.9 |
| 20260906033524 | 28 | 94 | 3.2 | 6.4 | 0.00 | 0.00 | 0.00 | 60 | 1010.8 |
| 20260906033046 | 28 | 98 | 1.6 | 4.8 | 0.00 | 0.00 | 0.00 | 59 | 1010.8 |
| 20260906032523 | 28 | 85 | 1.6 | 6.4 | 0.00 | 0.00 | 0.00 | 59 | 1010.9 |
| 20260906032023 | 28 | 85 | 1.6 | 6.4 | 0.00 | 0.00 | 0.00 | 59 | 1011.0 |
| 20260906031542 | 28 | 82 | 4.8 | 6.4 | 0.00 | 0.00 | 0.00 | 59 | 1011.0 |
| 20260906031024 | 28 | 82 | 4.8 | 6.4 | 0.00 | 0.00 | 0.00 | 59 | 1010.9 |
| 20260906030525 | 28 | 79 | 3.2 | 8.0 | 0.00 | 0.00 | 0.00 | 59 | 1010.9 |
| 20260906030046 | 28 | 76 | 4.8 | 11.3 | 0.00 | 0.00 | 0.00 | 59 | 1010.8 |
| 20260906025524 | 28 | 82 | 4.8 | 11.3 | 0.00 | 0.00 | 0.00 | 59 | 1010.8 |
| 20260906025024 | 28 | 77 | 4.8 | 6.4 | 0.00 | 0.00 | 0.00 | 60 | 1010.7 |
| 20260906024544 | 28 | 92 | 3.2 | 6.4 | 0.00 | 0.00 | 0.00 | 60 | 1010.6 |
| 20260906024024 | 28 | 87 | 3.2 | 6.4 | 0.00 | 0.00 | 0.00 | 60 | 1010.5 |
| 20260906023524 | 28 | 113 | 3.2 | 4.8 | 0.00 | 0.00 | 0.00 | 60 | 1010.5 |
| 20260906023057 | 28 | 113 | 1.6 | 4.8 | 0.00 | 0.00 | 0.00 | 60 | 1010.4 |
| 20260906022525 | 28 | 113 | 1.6 | 3.2 | 0.00 | 0.00 | 0.00 | 59 | 1010.4 |
| 20260906022024 | 28 | 113 | 1.6 | 4.8 | 0.00 | 0.00 | 0.00 | 59 | 1010.3 |
| 20260906021547 | 28 | 113 | 1.6 | 4.8 | 0.00 | 0.00 | 0.00 | 59 | 1010.1 |
| 20260906021024 | 28 | 113 | 1.6 | 4.8 | 0.00 | 0.00 | 0.00 | 58 | 1010.1 |
| 20260906020524 | 29 | 113 | 1.6 | 4.8 | 0.00 | 0.00 | 0.00 | 57 | 1010.0 |
| 20260906020046 | 29 | 113 | 1.6 | 4.8 | 0.00 | 0.00 | 0.00 | 56 | 1009.9 |
| 20260906015523 | 29 | 113 | 1.6 | 4.8 | 0.00 | 0.00 | 0.00 | 56 | 1009.9 |
| 20260906015021 | 30 | 113 | 3.2 | 4.8 | 0.00 | 0.00 | 0.00 | 55 | 1009.9 |
| 20260906014555 | 30 | 113 | 1.6 | 4.8 | 0.00 | 0.00 | 0.00 | 54 | 1009.9 |
| 20260906014025 | 30 | 113 | 3.2 | 4.8 | 0.00 | 0.00 | 0.00 | 54 | 1009.7 |
| 20260906013524 | 30 | 109 | 3.2 | 4.8 | 0.00 | 0.00 | 0.00 | 53 | 1009.6 |
| 20260906013049 | 30 | 109 | 3.2 | 4.8 | 0.00 | 0.00 | 0.00 | 53 | 1009.5 |
| 20260906012527 | 31 | 109 | 1.6 | 3.2 | 0.00 | 0.00 | 0.00 | 52 | 1009.5 |
| 20260906012025 | 31 | 109 | 1.6 | 3.2 | 0.00 | 0.00 | 0.00 | 52 | 1009.5 |
| 20260906011553 | 31 | 109 | 1.6 | 3.2 | 0.00 | 0.00 | 0.00 | 51 | 1009.4 |
| 20260906011023 | 31 | 109 | 1.6 | 4.8 | 0.00 | 0.00 | 0.00 | 50 | 1009.3 |
| 20260906010528 | 31 | 109 | 1.6 | 6.4 | 0.00 | 0.00 | 0.00 | 49 | 1009.3 |
| 20260906010047 | 32 | 109 | 1.6 | 6.4 | 0.00 | 0.00 | 0.00 | 49 | 1009.2 |
| 20260906005528 | 32 | 109 | 3.2 | 9.7 | 0.00 | 0.00 | 0.00 | 48 | 1009.1 |
| 20260906005025 | 32 | 95 | 3.2 | 9.7 | 0.00 | 0.00 | 0.00 | 48 | 1009.1 |
| 20260906004544 | 32 | 98 | 4.8 | 9.7 | 0.00 | 0.00 | 0.00 | 47 | 1009.0 |
| 20260906004031 | 32 | 113 | 3.2 | 9.7 | 0.00 | 0.00 | 0.00 | 47 | 1009.0 |
| 20260906003530 | 33 | 130 | 3.2 | 9.7 | 0.00 | 0.00 | 0.00 | 46 | 1009.1 |
| 20260906003052 | 33 | 114 | 4.8 | 9.7 | 0.00 | 0.00 | 0.00 | 46 | 1009.2 |
| 20260906002524 | 33 | 116 | 4.8 | 11.3 | 0.00 | 0.00 | 0.00 | 45 | 1009.2 |
| 20260906002025 | 34 | 136 | 4.8 | 12.9 | 0.00 | 0.00 | 0.00 | 44 | 1009.1 |
| 20260906001545 | 35 | 127 | 6.4 | 12.9 | 0.00 | 0.00 | 0.00 | 43 | 1009.2 |
| 20260906001025 | 35 | 105 | 6.4 | 14.5 | 0.00 | 0.00 | 0.00 | 42 | 1009.2 |
| 20260906000525 | 35 | 118 | 6.4 | 14.5 | 0.00 | 0.00 | 0.00 | 40 | 1009.3 |
| 20260906000052 | 36 | 106 | 6.4 | 12.9 | 0.00 | 0.00 | 0.00 | 40 | 1009.3 |
| 20260905235527 | 36 | 106 | 9.7 | 12.9 | 0.00 | 0.00 | 0.00 | 39 | 1009.3 |
| 20260905235024 | 36 | 111 | 3.2 | 12.9 | 0.00 | 0.00 | 0.00 | 39 | 1009.3 |
| 20260905234553 | 36 | 121 | 3.2 | 17.7 | 0.00 | 0.00 | 0.00 | 38 | 1009.4 |
| 20260905234025 | 37 | 135 | 8.0 | 17.7 | 0.00 | 0.00 | 0.00 | 37 | 1009.4 |
| 20260905233524 | 37 | 143 | 6.4 | 22.5 | 0.00 | 0.00 | 0.00 | 37 | 1009.4 |
| 20260905233046 | 37 | 105 | 9.7 | 22.5 | 0.00 | 0.00 | 0.00 | 36 | 1009.3 |
| 20260905232525 | 37 | 129 | 14.5 | 22.5 | 0.00 | 0.00 | 0.00 | 36 | 1009.1 |
| 20260905232023 | 37 | 119 | 4.8 | 16.1 | 0.00 | 0.00 | 0.00 | 36 | 1009.2 |
| 20260905231546 | 37 | 110 | 11.3 | 16.1 | 0.00 | 0.00 | 0.00 | 36 | 1009.2 |
| 20260905231023 | 37 | 127 | 4.8 | 16.1 | 0.00 | 0.00 | 0.00 | 35 | 1009.2 |
| 20260905230524 | 38 | 126 | 9.7 | 20.9 | 0.00 | 0.00 | 0.00 | 34 | 1009.3 |
| 20260905230043 | 38 | 124 | 4.8 | 20.9 | 0.00 | 0.00 | 0.00 | 34 | 1009.2 |
| 20260905225526 | 38 | 122 | 14.5 | 20.9 | 0.00 | 0.00 | 0.00 | 34 | 1009.2 |
| 20260905225023 | 38 | 116 | 14.5 | 20.9 | 0.00 | 0.00 | 0.00 | 34 | 1009.3 |
| 20260905224559 | 38 | 123 | 3.2 | 19.3 | 0.00 | 0.00 | 0.00 | 34 | 1009.3 |
| 20260905224024 | 38 | 122 | 12.9 | 19.3 | 0.00 | 0.00 | 0.00 | 34 | 1009.3 |
| 20260905223529 | 38 | 132 | 8.0 | 24.1 | 0.00 | 0.00 | 0.00 | 34 | 1009.3 |
| 20260905223045 | 38 | 104 | 8.0 | 24.1 | 0.00 | 0.00 | 0.00 | 33 | 1009.3 |
| 20260905222524 | 38 | 127 | 14.5 | 24.1 | 0.00 | 0.00 | 0.00 | 33 | 1009.2 |
| 20260905222023 | 38 | 105 | 8.0 | 19.3 | 0.00 | 0.00 | 0.00 | 32 | 1009.2 |
| 20260905221544 | 38 | 157 | 9.7 | 27.4 | 0.00 | 0.00 | 0.00 | 32 | 1009.2 |
| 20260905221023 | 38 | 108 | 17.7 | 27.4 | 0.00 | 0.00 | 0.00 | 32 | 1009.2 |
| 20260905220525 | 38 | 129 | 12.9 | 24.1 | 0.00 | 0.00 | 0.00 | 33 | 1009.2 |
| 20260905220046 | 38 | 104 | 16.1 | 25.7 | 0.00 | 0.00 | 0.00 | 32 | 1009.2 |
| 20260905215526 | 38 | 138 | 9.7 | 25.7 | 0.00 | 0.00 | 0.00 | 33 | 1009.2 |
| 20260905215027 | 39 | 105 | 16.1 | 25.7 | 0.00 | 0.00 | 0.00 | 33 | 1009.3 |
| 20260905214546 | 38 | 121 | 8.0 | 25.7 | 0.00 | 0.00 | 0.00 | 34 | 1009.3 |
| 20260905214025 | 38 | 105 | 12.9 | 27.4 | 0.00 | 0.00 | 0.00 | 33 | 1009.3 |
| 20260905213524 | 39 | 92 | 12.9 | 27.4 | 0.00 | 0.00 | 0.00 | 33 | 1009.2 |
| 20260905213044 | 40 | 90 | 17.7 | 29.0 | 0.00 | 0.00 | 0.00 | 33 | 1009.3 |
| 20260905212524 | 39 | 128 | 11.3 | 29.0 | 0.00 | 0.00 | 0.00 | 33 | 1009.3 |
| 20260905212027 | 39 | 129 | 12.9 | 24.1 | 0.00 | 0.00 | 0.00 | 33 | 1009.4 |
| 20260905211546 | 39 | 140 | 11.3 | 19.3 | 0.00 | 0.00 | 0.00 | 31 | 1009.4 |
| 20260905211024 | 39 | 161 | 9.7 | 27.4 | 0.00 | 0.00 | 0.00 | 32 | 1009.6 |
| 20260905210523 | 39 | 101 | 12.9 | 27.4 | 0.00 | 0.00 | 0.00 | 33 | 1009.7 |
| 20260905210044 | 38 | 119 | 12.9 | 27.4 | 0.00 | 0.00 | 0.00 | 34 | 1009.7 |
| 20260905205524 | 38 | 94 | 4.8 | 20.9 | 0.00 | 0.00 | 0.00 | 34 | 1009.7 |
| 20260905205024 | 39 | 107 | 8.0 | 20.9 | 0.00 | 0.00 | 0.00 | 34 | 1009.9 |
| 20260905204545 | 38 | 119 | 9.7 | 24.1 | 0.00 | 0.00 | 0.00 | 35 | 1010.0 |
| 20260905204023 | 39 | 148 | 14.5 | 24.1 | 0.00 | 0.00 | 0.00 | 34 | 1010.1 |
| 20260905203526 | 39 | 156 | 12.9 | 22.5 | 0.00 | 0.00 | 0.00 | 33 | 1010.1 |
| 20260905203047 | 39 | 146 | 8.0 | 19.3 | 0.00 | 0.00 | 0.00 | 32 | 1010.2 |
| 20260905202526 | 39 | 94 | 6.4 | 22.5 | 0.00 | 0.00 | 0.00 | 32 | 1010.2 |
| 20260905202023 | 39 | 140 | 11.3 | 22.5 | 0.00 | 0.00 | 0.00 | 33 | 1010.4 |
| 20260905201547 | 39 | 136 | 12.9 | 27.4 | 0.00 | 0.00 | 0.00 | 34 | 1010.4 |
| 20260905201028 | 39 | 155 | 11.3 | 27.4 | 0.00 | 0.00 | 0.00 | 33 | 1010.4 |
| 20260905200524 | 38 | 133 | 12.9 | 24.1 | 0.00 | 0.00 | 0.00 | 34 | 1010.6 |
| 20260905200053 | 38 | 140 | 4.8 | 29.0 | 0.00 | 0.00 | 0.00 | 35 | 1010.7 |
| 20260905195531 | 38 | 157 | 8.0 | 29.0 | 0.00 | 0.00 | 0.00 | 35 | 1010.6 |
| 20260905195027 | 38 | 146 | 11.3 | 24.1 | 0.00 | 0.00 | 0.00 | 34 | 1010.6 |
| 20260905194545 | 38 | 111 | 9.7 | 24.1 | 0.00 | 0.00 | 0.00 | 35 | 1010.7 |
| 20260905194024 | 38 | 121 | 8.0 | 27.4 | 0.00 | 0.00 | 0.00 | 35 | 1010.9 |
| 20260905193525 | 38 | 124 | 11.3 | 29.0 | 0.00 | 0.00 | 0.00 | 35 | 1010.9 |
| 20260905193051 | 38 | 113 | 11.3 | 29.0 | 0.00 | 0.00 | 0.00 | 33 | 1011.0 |
| 20260905192525 | 38 | 96 | 12.9 | 22.5 | 0.00 | 0.00 | 0.00 | 36 | 1011.0 |
| 20260905192029 | 38 | 90 | 12.9 | 22.5 | 0.00 | 0.00 | 0.00 | 37 | 1011.1 |
| 20260905191546 | 37 | 87 | 9.7 | 22.5 | 0.00 | 0.00 | 0.00 | 38 | 1011.1 |
| 20260905191026 | 37 | 101 | 6.4 | 27.4 | 0.00 | 0.00 | 0.00 | 37 | 1011.1 |
| 20260905190524 | 37 | 88 | 16.1 | 27.4 | 0.00 | 0.00 | 0.00 | 37 | 1011.3 |
| 20260905190052 | 37 | 111 | 8.0 | 20.9 | 0.00 | 0.00 | 0.00 | 36 | 1011.3 |
| 20260905185523 | 37 | 26 | 3.2 | 20.9 | 0.00 | 0.00 | 0.00 | 37 | 1011.3 |
| 20260905185026 | 37 | 92 | 9.7 | 20.9 | 0.00 | 0.00 | 0.00 | 37 | 1011.4 |
| 20260905184600 | 38 | 76 | 4.8 | 25.7 | 0.00 | 0.00 | 0.00 | 35 | 1011.5 |
| 20260905184025 | 38 | 101 | 11.3 | 25.7 | 0.00 | 0.00 | 0.00 | 35 | 1011.6 |
| 20260905183527 | 37 | 105 | 14.5 | 25.7 | 0.00 | 0.00 | 0.00 | 37 | 1011.6 |
| 20260905183051 | 37 | 132 | 6.4 | 16.1 | 0.00 | 0.00 | 0.00 | 38 | 1011.7 |
| 20260905182524 | 37 | 85 | 8.0 | 24.1 | 0.00 | 0.00 | 0.00 | 36 | 1011.9 |
| 20260905182025 | 38 | 117 | 16.1 | 24.1 | 0.00 | 0.00 | 0.00 | 37 | 1011.9 |
| 20260905181545 | 38 | 87 | 14.5 | 22.5 | 0.00 | 0.00 | 0.00 | 38 | 1011.8 |
| 20260905181023 | 37 | 105 | 6.4 | 29.0 | 0.00 | 0.00 | 0.00 | 38 | 1011.9 |
| 20260905180524 | 37 | 98 | 12.9 | 29.0 | 0.00 | 0.00 | 0.00 | 38 | 1011.9 |
| 20260905180042 | 37 | 92 | 11.3 | 22.5 | 0.00 | 0.00 | 0.00 | 40 | 1011.9 |
| 20260905175528 | 37 | 0 | 4.8 | 22.5 | 0.00 | 0.00 | 0.00 | 40 | 1012.0 |
| 20260905175022 | 37 | 122 | 9.7 | 22.5 | 0.00 | 0.00 | 0.00 | 40 | 1012.1 |
| 20260905174547 | 37 | 92 | 9.7 | 20.9 | 0.00 | 0.00 | 0.00 | 40 | 1012.1 |
| 20260905174024 | 37 | 166 | 11.3 | 20.9 | 0.00 | 0.00 | 0.00 | 39 | 1012.1 |
| 20260905173524 | 37 | 151 | 12.9 | 20.9 | 0.00 | 0.00 | 0.00 | 39 | 1012.1 |
| 20260905173044 | 37 | 158 | 8.0 | 25.7 | 0.00 | 0.00 | 0.00 | 40 | 1012.3 |
| 20260905172524 | 37 | 103 | 16.1 | 25.7 | 0.00 | 0.00 | 0.00 | 39 | 1012.3 |
| 20260905172027 | 37 | 122 | 11.3 | 24.1 | 0.00 | 0.00 | 0.00 | 40 | 1012.3 |
| 20260905171544 | 37 | 106 | 16.1 | 24.1 | 0.00 | 0.00 | 0.00 | 41 | 1012.3 |
| 20260905171024 | 36 | 173 | 9.7 | 19.3 | 0.00 | 0.00 | 0.00 | 42 | 1012.3 |
| 20260905170521 | 37 | 141 | 9.7 | 25.7 | 0.00 | 0.00 | 0.00 | 42 | 1012.4 |
| 20260905170046 | 37 | 101 | 14.5 | 27.4 | 0.00 | 0.00 | 0.00 | 42 | 1012.5 |
| 20260905165524 | 36 | 122 | 12.9 | 27.4 | 0.00 | 0.00 | 0.00 | 43 | 1012.4 |
| 20260905165024 | 36 | 114 | 12.9 | 27.4 | 0.00 | 0.00 | 0.00 | 43 | 1012.5 |
| 20260905164545 | 36 | 109 | 14.5 | 24.1 | 0.00 | 0.00 | 0.00 | 43 | 1012.6 |
| 20260905164024 | 36 | 155 | 11.3 | 25.7 | 0.00 | 0.00 | 0.00 | 44 | 1012.6 |
| 20260905163526 | 36 | 156 | 9.7 | 25.7 | 0.00 | 0.00 | 0.00 | 44 | 1012.5 |
| 20260905163045 | 36 | 157 | 9.7 | 20.9 | 0.00 | 0.00 | 0.00 | 45 | 1012.5 |
| 20260905162527 | 36 | 150 | 11.3 | 19.3 | 0.00 | 0.00 | 0.00 | 45 | 1012.5 |
| 20260905162025 | 35 | 113 | 9.7 | 24.1 | 0.00 | 0.00 | 0.00 | 45 | 1012.5 |
| 20260905161542 | 36 | 167 | 9.7 | 24.1 | 0.00 | 0.00 | 0.00 | 45 | 1012.6 |
| 20260905161024 | 36 | 134 | 8.0 | 22.5 | 0.00 | 0.00 | 0.00 | 45 | 1012.6 |
| 20260905160525 | 36 | 135 | 6.4 | 22.5 | 0.00 | 0.00 | 0.00 | 45 | 1012.6 |
| 20260905160045 | 36 | 102 | 9.7 | 22.5 | 0.00 | 0.00 | 0.00 | 45 | 1012.4 |
| 20260905155526 | 35 | 136 | 12.9 | 22.5 | 0.00 | 0.00 | 0.00 | 46 | 1012.3 |
| 20260905155023 | 35 | 179 | 9.7 | 20.9 | 0.00 | 0.00 | 0.00 | 46 | 1012.4 |
| 20260905154544 | 35 | 121 | 12.9 | 24.1 | 0.00 | 0.00 | 0.00 | 46 | 1012.4 |
| 20260905154024 | 35 | 169 | 12.9 | 24.1 | 0.00 | 0.00 | 0.00 | 47 | 1012.4 |
| 20260905153525 | 35 | 121 | 12.9 | 22.5 | 0.00 | 0.00 | 0.00 | 47 | 1012.3 |
| 20260905153055 | 34 | 108 | 12.9 | 20.9 | 0.00 | 0.00 | 0.00 | 48 | 1012.3 |
| 20260905152525 | 34 | 105 | 12.9 | 24.1 | 0.00 | 0.00 | 0.00 | 49 | 1012.3 |
| 20260905152024 | 33 | 126 | 9.7 | 24.1 | 0.00 | 0.00 | 0.00 | 50 | 1012.3 |
| 20260905151550 | 33 | 155 | 12.9 | 24.1 | 0.00 | 0.00 | 0.00 | 50 | 1012.3 |
| 20260905151026 | 33 | 123 | 14.5 | 20.9 | 0.00 | 0.00 | 0.00 | 50 | 1012.3 |
| 20260905150524 | 33 | 138 | 14.5 | 20.9 | 0.00 | 0.00 | 0.00 | 51 | 1012.1 |
| 20260905150046 | 33 | 147 | 11.3 | 20.9 | 0.00 | 0.00 | 0.00 | 52 | 1012.2 |
| 20260905145525 | 32 | 133 | 11.3 | 20.9 | 0.00 | 0.00 | 0.00 | 52 | 1012.1 |
| 20260905145024 | 32 | 122 | 11.3 | 19.3 | 0.00 | 0.00 | 0.00 | 54 | 1011.9 |
| 20260905144548 | 32 | 135 | 9.7 | 17.7 | 0.00 | 0.00 | 0.00 | 56 | 1011.9 |
| 20260905144023 | 31 | 138 | 6.4 | 19.3 | 0.00 | 0.00 | 0.00 | 57 | 1011.7 |
| 20260905143525 | 31 | 150 | 8.0 | 19.3 | 0.00 | 0.00 | 0.00 | 58 | 1011.7 |
| 20260905143045 | 31 | 126 | 9.7 | 17.7 | 0.00 | 0.00 | 0.00 | 59 | 1011.7 |
| 20260905142528 | 30 | 133 | 12.9 | 17.7 | 0.00 | 0.00 | 0.00 | 60 | 1011.7 |
| 20260905142026 | 30 | 97 | 9.7 | 14.5 | 0.00 | 0.00 | 0.00 | 61 | 1011.6 |
| 20260905141554 | 30 | 126 | 8.0 | 14.5 | 0.00 | 0.00 | 0.00 | 63 | 1011.6 |
| 20260905141023 | 29 | 128 | 4.8 | 12.9 | 0.00 | 0.00 | 0.00 | 64 | 1011.7 |
| 20260905140524 | 28 | 112 | 6.4 | 12.9 | 0.00 | 0.00 | 0.00 | 64 | 1011.6 |
| 20260905140044 | 28 | 117 | 6.4 | 12.9 | 0.00 | 0.00 | 0.00 | 65 | 1011.7 |
| 20260905135525 | 28 | 115 | 6.4 | 12.9 | 0.00 | 0.00 | 0.00 | 67 | 1011.7 |
| 20260905135023 | 27 | 117 | 9.7 | 12.9 | 0.00 | 0.00 | 0.00 | 69 | 1011.7 |
| 20260905134544 | 27 | 140 | 6.4 | 12.9 | 0.00 | 0.00 | 0.00 | 70 | 1011.8 |
| 20260905134026 | 27 | 113 | 6.4 | 12.9 | 0.00 | 0.00 | 0.00 | 71 | 1011.7 |
| 20260905133525 | 26 | 129 | 4.8 | 12.9 | 0.00 | 0.00 | 0.00 | 72 | 1011.5 |
| 20260905133046 | 26 | 106 | 6.4 | 14.5 | 0.00 | 0.00 | 0.00 | 74 | 1011.5 |
| 20260905132525 | 25 | 107 | 9.7 | 14.5 | 0.00 | 0.00 | 0.00 | 75 | 1011.5 |
| 20260905132024 | 25 | 115 | 8.0 | 12.9 | 0.00 | 0.00 | 0.00 | 77 | 1011.5 |
| 20260905131558 | 25 | 112 | 6.4 | 12.9 | 0.00 | 0.00 | 0.00 | 78 | 1011.4 |
| 20260905131024 | 24 | 120 | 6.4 | 11.3 | 0.00 | 0.00 | 0.00 | 80 | 1011.4 |
| 20260905130523 | 23 | 115 | 6.4 | 11.3 | 0.00 | 0.00 | 0.00 | 80 | 1011.3 |
| 20260905130048 | 23 | 96 | 6.4 | 11.3 | 0.00 | 0.00 | 0.00 | 81 | 1011.2 |
| 20260905125526 | 23 | 92 | 6.4 | 11.3 | 0.00 | 0.00 | 0.00 | 82 | 1011.2 |
| 20260905125028 | 23 | 106 | 4.8 | 11.3 | 0.00 | 0.00 | 0.00 | 83 | 1011.2 |
| 20260905124547 | 22 | 96 | 3.2 | 9.7 | 0.00 | 0.00 | 0.00 | 84 | 1011.2 |
| 20260905124028 | 22 | 105 | 3.2 | 6.4 | 0.00 | 0.00 | 0.00 | 84 | 1011.2 |
| 20260905123524 | 22 | 111 | 3.2 | 6.4 | 0.00 | 0.00 | 0.00 | 83 | 1011.2 |
| 20260905123045 | 22 | 109 | 3.2 | 6.4 | 0.00 | 0.00 | 0.00 | 83 | 1011.2 |
| 20260905122525 | 22 | 113 | 4.8 | 6.4 | 0.00 | 0.00 | 0.00 | 83 | 1011.1 |
| 20260905122024 | 22 | 107 | 4.8 | 6.4 | 0.00 | 0.00 | 0.00 | 83 | 1010.9 |
| 20260905121544 | 22 | 115 | 3.2 | 6.4 | 0.00 | 0.00 | 0.00 | 82 | 1011.0 |
| 20260905121024 | 22 | 116 | 3.2 | 6.4 | 0.00 | 0.00 | 0.00 | 82 | 1010.9 |
| 20260905120527 | 22 | 113 | 3.2 | 6.4 | 0.00 | 0.00 | 0.00 | 82 | 1011.0 |
| 20260905120123 | 22 | 101 | 3.2 | 6.4 | 0.00 | 0.00 | 0.00 | 81 | 1010.8 |
| 20260905115528 | 22 | 109 | 3.2 | 6.4 | 0.00 | 0.00 | 0.00 | 81 | 1010.7 |
| 20260905115025 | 22 | 111 | 3.2 | 6.4 | 0.00 | 0.00 | 0.00 | 81 | 1010.7 |
| 20260905114546 | 22 | 103 | 3.2 | 6.4 | 0.00 | 0.00 | 0.00 | 80 | 1010.6 |
| 20260905114024 | 22 | 103 | 3.2 | 6.4 | 0.00 | 0.00 | 0.00 | 81 | 1010.6 |
| 20260905113524 | 22 | 101 | 4.8 | 6.4 | 0.00 | 0.00 | 0.00 | 80 | 1010.6 |
| 20260905113045 | 23 | 109 | 3.2 | 6.4 | 0.00 | 0.00 | 0.00 | 81 | 1010.6 |
| 20260905112524 | 23 | 103 | 3.2 | 6.4 | 0.00 | 0.00 | 0.00 | 81 | 1010.7 |
| 20260905112026 | 23 | 103 | 3.2 | 6.4 | 0.00 | 0.00 | 0.00 | 81 | 1010.7 |
| 20260905111602 | 23 | 103 | 3.2 | 6.4 | 0.00 | 0.00 | 0.00 | 81 | 1010.6 |
| 20260905111025 | 23 | 93 | 4.8 | 6.4 | 0.00 | 0.00 | 0.00 | 81 | 1010.6 |
| 20260905110524 | 23 | 96 | 3.2 | 6.4 | 0.00 | 0.00 | 0.00 | 80 | 1010.6 |
| 20260905110051 | 23 | 104 | 4.8 | 6.4 | 0.00 | 0.00 | 0.00 | 80 | 1010.6 |
| 20260905105524 | 23 | 117 | 3.2 | 6.4 | 0.00 | 0.00 | 0.00 | 80 | 1010.6 |
| 20260905105023 | 23 | 117 | 3.2 | 6.4 | 0.00 | 0.00 | 0.00 | 79 | 1010.6 |
| 20260905104545 | 23 | 117 | 3.2 | 4.8 | 0.00 | 0.00 | 0.00 | 79 | 1010.6 |
| 20260905104024 | 23 | 117 | 3.2 | 6.4 | 0.00 | 0.00 | 0.00 | 78 | 1010.7 |